[[[{"header":{"parameterUnit":"kt","parameterCategory":2,"dx":1,"dy":1,"la1":30.253999710083008,"la2":30.299108505249023,"lo1":-89.0895004272461,"lo2":-89.04439544677734,"nx":28,"ny":28,"refTime":"2022-10-16T21:00:00:Z","depth":0,"parameterNumber":1,"parameterNumberName":"U-component_of_WINDS"},"data":[1.7338,1.7366,1.737,1.7404,1.7412,1.7436,1.7445,1.7457,1.7467,1.7495,1.7512,1.7516,1.7526,1.7546,1.7563,1.7564,1.7571,1.7582,1.7581,1.7535,1.7529,1.7523,1.7516,1.7583,1.7583,1.7627,1.7628,1.7628,1.7309,1.7318,1.7337,1.7356,1.7372,1.7365,1.7379,1.7393,1.7414,1.7426,1.7441,1.7465,1.7484,1.749,1.7508,1.7521,1.7518,1.7526,1.7524,1.7526,1.7477,1.747,1.7529,1.7529,1.7529,1.7529,1.7529,1.7529,1.7259,1.7276,1.7288,1.7308,1.7318,1.7331,1.7347,1.7351,1.7368,1.7387,1.7385,1.7408,1.7419,1.744,1.7446,1.7464,1.7454,1.7463,1.7465,1.7467,1.7469,1.7407,1.7467,1.7467,1.7467,1.7467,1.7467,0,1.7221,1.7222,1.7239,1.7257,1.7271,1.7284,1.7296,1.7306,1.7305,1.7319,1.7339,1.735,1.7373,1.7391,1.7407,1.7411,1.7401,1.74,1.7406,1.7407,1.7407,1.7407,1.7328,1.7397,1.7397,1.7396,1.7396,1.7396,1.717,1.7188,1.7201,1.7212,1.7218,1.7237,1.7247,1.7245,1.7256,1.727,1.7284,1.7302,1.7316,1.7347,1.7348,1.7364,1.7359,1.7386,1.7361,1.7363,1.7359,1.7357,1.7359,1.739,1.739,1.7391,1.7391,0,1.714,1.7141,1.717,1.7179,1.7182,1.7201,1.7209,1.7224,1.7225,1.7247,1.7252,1.7252,1.7271,1.7268,1.7288,1.7286,1.7319,1.7314,1.7316,1.7314,1.7338,1.7335,1.7414,1.7424,1.7355,1.7355,1.7356,0,1.7095,1.7119,1.7119,1.7135,1.7162,1.7157,1.7184,1.7187,1.7194,1.7211,1.72,1.7216,1.7209,1.7225,1.7222,1.7248,1.7251,1.7251,1.7249,1.7251,1.7251,1.7254,1.725,1.7245,1.7245,1.7245,1.7244,0,1.7048,1.7074,1.7101,1.7107,1.7117,1.7129,1.7134,1.7141,1.7151,1.7163,1.7169,1.7183,1.719,1.7201,1.7196,1.718,1.7228,1.7204,1.7227,1.7228,1.7236,1.7235,1.7308,1.7244,1.7244,1.7243,1.7243,0,1.701,1.7023,1.7061,1.7069,1.7075,1.7092,1.7106,1.7119,1.7127,1.7126,1.7135,1.7125,1.7148,1.7124,1.7155,1.7135,1.7143,1.7144,1.7146,1.7145,1.7118,1.7159,1.7229,1.7236,1.7149,1.7148,1.7148,0,1.6957,1.6994,1.6989,1.7024,1.704,1.7026,1.7045,1.7052,1.7052,1.7065,1.7064,1.7079,1.7061,1.7064,1.7081,1.7079,1.7106,1.7076,1.7095,1.7096,1.7093,1.7158,1.7168,1.7215,1.7138,1.7139,1.7139,0,1.6914,1.6923,1.693,1.6936,1.6943,1.6955,1.6977,1.699,1.6999,1.7007,1.7024,1.7045,1.7032,1.7037,1.7029,1.7046,1.7088,1.7029,1.7029,1.704,1.7132,1.7142,1.715,1.7079,1.7081,1.7082,1.7131,0,1.6857,1.6874,1.6891,1.6902,1.6911,1.6932,1.6926,1.6937,1.6929,1.6927,1.6952,1.6953,1.6964,1.6971,1.6962,1.7001,1.6994,1.6978,1.6953,1.6996,1.7012,1.7019,1.693,1.6929,1.6928,1.6928,0,0,1.6805,1.6828,1.6819,1.6838,1.6845,1.6827,1.685,1.6854,1.6862,1.6867,1.6854,1.6881,1.6882,1.6912,1.6925,1.6929,1.6936,1.6919,1.6976,1.6981,1.6986,1.7004,1.7011,1.6927,1.6926,1.6926,1.6926,0,1.6782,1.6784,1.6806,1.6811,1.6816,1.6812,1.6818,1.6818,1.6817,1.684,1.6824,1.6837,1.6857,1.6861,1.6866,1.6917,1.6902,1.6921,1.6951,1.6969,1.6976,1.6981,1.7,1.7006,1.6924,1.6924,1.6925,0,1.6738,1.6739,1.6749,1.6762,1.6764,1.678,1.6753,1.677,1.6781,1.6757,1.6779,1.6779,1.6782,1.6811,1.6823,1.681,1.6872,1.685,1.6854,1.6854,1.6872,1.6879,1.6886,1.6797,1.6797,1.6796,0,0,1.6718,1.6733,1.6731,1.6756,1.6759,1.6752,1.6759,1.675,1.6754,1.6755,1.6753,1.6756,1.6768,1.6776,1.6786,1.6818,1.6818,1.6835,1.6841,1.6845,1.6849,1.6868,1.6875,1.6795,1.6795,1.6795,0,0,1.6708,1.6707,1.6698,1.6726,1.6731,1.6728,1.6744,1.6732,1.674,1.6737,1.6722,1.6722,1.6748,1.6747,1.6728,1.6776,1.6752,1.6756,1.6776,1.6783,1.6789,1.6788,1.6698,0,0,0,0,0,1.668,1.6707,1.6699,1.6703,1.6717,1.6734,1.6735,1.6724,1.6708,1.6721,1.6717,1.67,1.6734,1.6717,1.672,1.6741,1.6775,1.6779,1.6782,1.6815,1.6823,1.6829,0,0,0,0,0,0,1.6681,1.6686,1.6698,1.6698,1.6701,1.6733,1.6702,1.67,1.6706,1.6703,1.6701,1.67,1.669,1.6714,1.6718,1.6737,1.6697,1.6776,1.6779,1.6782,1.6817,1.6824,1.6829,0,0,0,0,0,1.6682,1.6686,1.6711,1.6697,1.67,1.6692,1.6701,1.6699,1.6703,1.6696,1.6694,1.6694,1.6691,1.6693,1.6716,1.6736,1.6694,1.6696,1.6778,1.6781,1.6783,1.6821,0,0,0,0,0,0,1.6683,1.6684,1.6711,1.6712,1.6685,1.669,1.669,1.6698,1.6696,1.6694,1.6688,1.6685,1.6692,1.6693,1.6695,1.6737,1.6692,1.6694,1.6695,1.678,1.6782,1.6784,0,0,0,0,0,0,1.6682,1.6684,1.6712,1.6697,1.6696,1.6688,1.6688,1.6706,1.6696,1.6688,1.6685,1.6687,1.6689,1.6693,1.6695,1.6722,1.6691,1.6692,1.6693,1.6694,1.6782,1.6783,0,0,0,0,0,0,1.6682,1.6684,1.6697,1.6696,1.6694,1.6698,1.6703,1.6718,1.6685,1.6688,1.6682,1.668,1.669,1.6691,1.6695,1.6722,1.6722,1.6691,1.6692,1.6692,1.6693,0,0,0,0,0,0,0,1.6683,1.6672,1.6709,1.6695,1.6694,1.6715,1.6715,1.6715,1.6685,1.6683,1.6682,1.6681,1.6684,1.6685,1.6687,1.6722,0,0,1.6691,1.6692,0,0,0,0,0,0,0,0,1.6671,1.6672,1.6709,1.6709,1.6709,1.6715,1.6715,1.6715,1.6684,1.6683,1.6682,1.6681,1.6684,1.6686,1.6687,0,0,0,0,0,0,0,0,0,0,0,0,0,0,0,1.6709,1.6709,0,1.6715,1.6715,1.6715,1.6684,1.6683,1.6682,1.6682,1.6685,1.6686,1.6687,0,0,0,0,0,0,0,0,0,0,0,0,0,0,0,0,0,0,0,0,0,0,0,0,0,0,0,0,0,0,0,0,0,0,0,0,0,0,0,0,0,0,0,0,0,0,0,0,0,0,0,0,0,0,0,0,0,0,0,0,0,0,0,0,0,0,0,0,0]}],[{"header":{"parameterUnit":"kt","parameterCategory":2,"dx":1,"dy":1,"la1":30.253999710083008,"la2":30.299108505249023,"lo1":-89.0895004272461,"lo2":-89.04439544677734,"nx":28,"ny":28,"refTime":"2022-10-16T21:00:00:Z","depth":0,"parameterNumber":2,"parameterNumberName":"V-component_of_WINDS"},"data":[0.1906,0.1955,0.1955,0.2012,0.2022,0.2063,0.2078,0.2099,0.2116,0.2168,0.2199,0.2207,0.2228,0.2268,0.2305,0.2309,0.2326,0.2344,0.2346,0.2261,0.2249,0.2238,0.2226,0.2346,0.2347,0.2435,0.2435,0.2436,0.185,0.1859,0.1888,0.1916,0.1943,0.1926,0.1949,0.1973,0.2011,0.2032,0.2061,0.2109,0.2147,0.2162,0.2201,0.2229,0.2225,0.224,0.2239,0.2244,0.2152,0.2139,0.2242,0.2242,0.2242,0.2242,0.2242,0.2242,0.1747,0.1775,0.1791,0.1823,0.1837,0.1857,0.1886,0.1893,0.1924,0.1959,0.1955,0.1999,0.2023,0.2069,0.2086,0.2124,0.2108,0.2126,0.2131,0.2136,0.2143,0.2022,0.213,0.213,0.2129,0.2129,0.2129,0,0.1672,0.167,0.1696,0.1724,0.1747,0.1768,0.1789,0.1807,0.1804,0.183,0.1868,0.1891,0.1937,0.1976,0.2012,0.2026,0.2015,0.2013,0.2026,0.203,0.203,0.2035,0.1889,0.201,0.2009,0.2008,0.2008,0.2007,0.1572,0.1603,0.1619,0.1638,0.1648,0.1679,0.1698,0.1692,0.1714,0.174,0.1768,0.1804,0.1834,0.1898,0.1909,0.1945,0.1941,0.1988,0.1947,0.195,0.1947,0.1946,0.1951,0.1997,0.1998,0.1999,0.2,0,0.1516,0.1513,0.1562,0.1574,0.1579,0.1614,0.1626,0.1655,0.1658,0.17,0.1709,0.1715,0.1754,0.1757,0.1802,0.1803,0.1871,0.1863,0.1864,0.1863,0.1908,0.1906,0.2046,0.2066,0.1937,0.1938,0.1939,0,0.1431,0.1473,0.1467,0.1495,0.1543,0.1534,0.1582,0.1589,0.1605,0.1637,0.1621,0.1653,0.165,0.1684,0.1685,0.174,0.1747,0.1752,0.1753,0.1755,0.1755,0.177,0.1766,0.1747,0.1746,0.1746,0.1745,0,0.1346,0.139,0.1435,0.1445,0.1462,0.1485,0.1494,0.151,0.1529,0.1555,0.1568,0.1598,0.1616,0.1642,0.1643,0.1616,0.1708,0.167,0.1714,0.1715,0.1736,0.1735,0.1857,0.1744,0.1744,0.1744,0.1743,0,0.1277,0.1298,0.1363,0.1377,0.1389,0.1419,0.1447,0.1472,0.1492,0.1493,0.1513,0.1503,0.1546,0.151,0.1572,0.1536,0.1556,0.1564,0.1567,0.1574,0.1533,0.1605,0.1717,0.1731,0.1578,0.1577,0.1575,0,0.1183,0.1246,0.1237,0.13,0.1329,0.1308,0.1342,0.1358,0.1362,0.139,0.1396,0.1428,0.14,0.1411,0.1441,0.1449,0.1496,0.1443,0.1492,0.1494,0.149,0.1592,0.161,0.1692,0.1558,0.1559,0.1561,0,0.1109,0.1125,0.1136,0.1148,0.1164,0.1188,0.1226,0.1254,0.1274,0.1292,0.1327,0.137,0.1353,0.137,0.1364,0.1396,0.1464,0.1372,0.1373,0.1392,0.1547,0.1564,0.1578,0.1455,0.1457,0.1459,0.1547,0,0.1012,0.1042,0.1071,0.1093,0.1111,0.1148,0.1144,0.1165,0.1156,0.1159,0.1208,0.122,0.1251,0.1265,0.1257,0.1326,0.1316,0.1296,0.1262,0.1327,0.1357,0.1368,0.1218,0.1217,0.1216,0.1216,0,0,0.0925,0.0966,0.0953,0.0987,0.1002,0.0978,0.1019,0.103,0.1054,0.1067,0.1047,0.1111,0.1122,0.1182,0.1202,0.1213,0.1228,0.1203,0.1295,0.1304,0.1312,0.1344,0.1355,0.1214,0.1214,0.1214,0.1213,0,0.0889,0.0894,0.0931,0.0942,0.0957,0.0956,0.0965,0.0976,0.0979,0.1024,0.1006,0.1036,0.1084,0.11,0.1115,0.1195,0.1182,0.1204,0.125,0.1286,0.1296,0.1305,0.1338,0.1349,0.1211,0.1211,0.1211,0,0.0818,0.0824,0.084,0.0868,0.0877,0.0907,0.087,0.0901,0.0925,0.0898,0.0944,0.0951,0.097,0.1025,0.105,0.1033,0.1141,0.1105,0.111,0.1114,0.1149,0.1161,0.1172,0.1032,0.1032,0.1031,0,0,0.0787,0.0812,0.0817,0.0859,0.0867,0.0864,0.0879,0.0872,0.0887,0.0893,0.0901,0.0918,0.0948,0.0967,0.0994,0.1054,0.106,0.1083,0.1091,0.1098,0.1105,0.1143,0.1155,0.1029,0.1029,0.1029,0,0,0.0773,0.0778,0.0766,0.0814,0.0828,0.0836,0.0864,0.085,0.0873,0.0868,0.0859,0.0863,0.0914,0.0922,0.0891,0.0982,0.0948,0.0955,0.0975,0.0986,0.0994,0.0993,0.0856,0,0,0,0,0,0.0733,0.0778,0.0766,0.0773,0.0808,0.0842,0.0847,0.0839,0.0815,0.0838,0.0843,0.0825,0.0904,0.0876,0.0885,0.092,0.0999,0.1004,0.1009,0.1049,0.106,0.107,0,0,0,0,0,0,0.0736,0.0744,0.0765,0.0775,0.0782,0.0841,0.0799,0.0798,0.0813,0.0808,0.0825,0.0825,0.0821,0.0871,0.0879,0.0913,0.0853,0.1001,0.1005,0.1009,0.1053,0.1062,0.107,0,0,0,0,0,0.0738,0.0745,0.0801,0.0774,0.0781,0.0781,0.0797,0.0796,0.0807,0.0814,0.0814,0.08,0.0822,0.0828,0.0876,0.0909,0.0847,0.085,0.1004,0.1007,0.101,0.1058,0,0,0,0,0,0,0.0739,0.0745,0.0802,0.0804,0.0756,0.0777,0.078,0.0795,0.0811,0.0812,0.0788,0.0785,0.0823,0.0828,0.0833,0.0909,0.0842,0.0846,0.0848,0.1006,0.1009,0.1012,0,0,0,0,0,0,0.0741,0.0747,0.0803,0.078,0.078,0.0774,0.0777,0.0815,0.0812,0.0785,0.0783,0.0786,0.0817,0.0828,0.0832,0.0893,0.0839,0.0842,0.0844,0.0845,0.1009,0.1011,0,0,0,0,0,0,0.0744,0.0748,0.078,0.0779,0.0778,0.0799,0.0809,0.0845,0.0789,0.0785,0.0785,0.0782,0.0817,0.0821,0.0831,0.089,0.0892,0.0839,0.0841,0.0842,0.0843,0,0,0,0,0,0,0,0.0746,0.0715,0.0791,0.0778,0.0778,0.0822,0.0822,0.0823,0.0789,0.0787,0.0785,0.0783,0.0822,0.0825,0.0828,0.0889,0,0,0.0839,0.084,0,0,0,0,0,0,0,0,0.0713,0.0714,0.0791,0.0792,0.0792,0.0822,0.0822,0.0823,0.0789,0.0787,0.0785,0.0784,0.0823,0.0825,0.0828,0,0,0,0,0,0,0,0,0,0,0,0,0,0,0,0.0791,0.0791,0,0.0822,0.0822,0.0822,0.0788,0.0787,0.0786,0.0785,0.0823,0.0825,0.0828,0,0,0,0,0,0,0,0,0,0,0,0,0,0,0,0,0,0,0,0,0,0,0,0,0,0,0,0,0,0,0,0,0,0,0,0,0,0,0,0,0,0,0,0,0,0,0,0,0,0,0,0,0,0,0,0,0,0,0,0,0,0,0,0,0,0,0,0,0]}]]]